Chatham, MA

2:29 AM EDT on September 23, 2017 (GMT -0400)
Chatham Municipal

Weather History for KCQX - October, 2011

Change the Weather History Date:

Wednesday, October 19, 2011

  Actual Average Record
Temperature  
Mean Temperature 63 °F -  
Max Temperature 69 °F 57 °F 75 °F (2016)
Min Temperature 57 °F 43 °F 30 °F (2001)
Degree Days  
Heating Degree Days 2    
Growing Degree Days 13 (Base 50)    
Moisture  
Dew Point 60 °F    
Average Humidity 90    
Maximum Humidity 100    
Minimum Humidity 75    
Precipitation  
Precipitation 1.27 in - - ()
Sea Level Pressure  
Sea Level Pressure 29.79 in    
Wind  
Wind Speed 8 mph (East)    
Max Wind Speed 20 mph    
Max Gust Speed 31 mph    
Visibility 5 miles    
Events Rain    
Averages and records for this station are not official NWS values.
T = Trace of Precipitation, MM = Missing Value Source: NWS Daily Summary

Daily Weather History Graph

Daily Weather History Graph

Search for Another Location

Airport or City:

Trip Planner

Search our weather history database for the weather conditions in past years. The results will help you decide how hot, cold, wet, or windy it might be!

Date:

Astronomy

Oct. 19, 2011 Rise Set
Actual Time 6:56 AM EDT 5:52 PM EDT
Civil Twilight 6:28 AM EDT 6:21 PM EDT
Nautical Twilight 5:55 AM EDT 6:53 PM EDT
Astronomical Twilight 5:23 AM EDT 7:25 PM EDT
Moon 11:32 PM EDT (10/19) 1:27 PM EDT (10/19)
Length of Visible Light 11h 52m
Length of Day
10h 56m
Waning Gibbous, 55% of the Moon is Illuminated
Oct 19
Waning Gibbous
Oct 19
Last Quarter
Oct 26
New
Nov 2
First Quarter
Nov 10
Full

Hourly Weather History & Observations

Time (EDT) Temp. Dew Point Humidity Pressure Visibility Wind Dir Wind Speed Gust Speed Precip Events Conditions
12:52 AM 57.0 °F 52.0 °F 83% 29.97 in 10.0 mi Calm Calm - N/A   Clear
1:52 AM 57.0 °F 53.1 °F 87% 29.97 in 10.0 mi Calm Calm - N/A   Partly Cloudy
2:52 AM 57.9 °F 53.1 °F 84% 29.95 in 10.0 mi NNE 4.6 mph - N/A   Clear
3:52 AM 59.0 °F 54.0 °F 83% 29.94 in 10.0 mi NE 5.8 mph - N/A   Clear
4:30 AM 60.8 °F 53.6 °F 77% 29.96 in 10.0 mi ENE 8.1 mph - N/A   Mostly Cloudy
4:52 AM 61.0 °F 53.1 °F 75% 29.96 in 10.0 mi ENE 6.9 mph - N/A   Overcast
5:52 AM 61.0 °F 54.0 °F 78% 29.95 in 10.0 mi East 9.2 mph - N/A   Overcast
6:42 AM 60.8 °F 55.4 °F 82% 29.95 in 10.0 mi East 9.2 mph - N/A   Scattered Clouds
6:52 AM 61.0 °F 54.0 °F 78% 29.95 in 10.0 mi East 8.1 mph - N/A   Clear
7:14 AM 60.8 °F 55.4 °F 82% 29.95 in 10.0 mi East 9.2 mph - N/A   Scattered Clouds
8:02 AM 60.8 °F 57.2 °F 88% 29.94 in 10.0 mi East 9.2 mph - N/A   Scattered Clouds
8:12 AM 60.8 °F 57.2 °F 88% 29.95 in 10.0 mi East 8.1 mph - N/A   Mostly Cloudy
8:22 AM 62.6 °F 57.2 °F 82% 29.95 in 10.0 mi East 9.2 mph - N/A   Overcast
8:43 AM 62.6 °F 57.2 °F 82% 29.96 in 9.0 mi ENE 5.8 mph - N/A   Overcast
8:52 AM 62.1 °F 57.9 °F 86% 29.97 in 8.0 mi ENE 6.9 mph - N/A   Overcast
9:37 AM 62.6 °F 59.0 °F 88% 29.94 in 2.0 mi ENE 9.2 mph - 0.00 in Rain Light Rain
9:59 AM 62.6 °F 59.0 °F 88% 29.93 in 4.0 mi ENE 9.2 mph - 0.00 in Rain Light Rain
10:52 AM 62.1 °F 59.0 °F 90% 29.93 in 3.0 mi ENE 11.5 mph 20.7 mph 0.02 in Rain Light Rain
11:52 AM 62.1 °F 59.0 °F 90% 29.90 in 5.0 mi ENE 12.7 mph - 0.03 in Rain Light Rain
12:52 PM 62.1 °F 59.0 °F 90% 29.86 in 4.0 mi East 12.7 mph 20.7 mph 0.02 in Rain Light Rain
1:52 PM 62.1 °F 60.1 °F 93% 29.82 in 3.0 mi East 13.8 mph - 0.03 in Rain Light Rain
2:26 PM 62.6 °F 60.8 °F 94% 29.80 in 4.0 mi East 13.8 mph - 0.04 in Rain Light Rain
2:37 PM 62.6 °F 60.8 °F 94% 29.79 in 1.8 mi East 16.1 mph 23.0 mph 0.06 in Rain Rain
2:52 PM 62.1 °F 60.1 °F 93% 29.78 in 1.5 mi ENE 15.0 mph 24.2 mph 0.13 in Rain Rain
3:17 PM 62.6 °F 60.8 °F 94% 29.75 in 2.0 mi East 17.3 mph 28.8 mph 0.06 in Rain Light Rain
3:26 PM 62.6 °F 60.8 °F 94% 29.74 in 1.8 mi East 18.4 mph 31.1 mph 0.08 in Rain Rain
3:36 PM 62.6 °F 60.8 °F 94% 29.74 in 1.5 mi ENE 19.6 mph 26.5 mph 0.11 in Rain Rain
3:48 PM 62.6 °F 60.8 °F 94% 29.72 in 1.0 mi ENE 18.4 mph 25.3 mph 0.24 in Rain Heavy Rain
4:52 PM 61.0 °F 59.0 °F 93% 29.69 in 3.0 mi East 17.3 mph 27.6 mph 0.36 in Rain Light Rain
5:03 PM 62.6 °F 59.0 °F 88% 29.68 in 2.5 mi East 16.1 mph 27.6 mph 0.01 in Rain Light Rain
5:16 PM 62.6 °F 60.8 °F 94% 29.67 in 1.8 mi East 17.3 mph 28.8 mph 0.04 in Rain Light Rain
5:23 PM 62.6 °F 60.8 °F 94% 29.68 in 3.0 mi East 17.3 mph 26.5 mph 0.04 in Rain Light Rain
5:31 PM 62.6 °F 60.8 °F 94% 29.68 in 2.0 mi ESE 12.7 mph 25.3 mph 0.05 in Rain Rain
5:52 PM 63.0 °F 61.0 °F 93% 29.68 in 5.0 mi East 17.3 mph 27.6 mph 0.06 in Rain Light Rain
6:14 PM 64.4 °F 62.6 °F 94% 29.66 in 1.8 mi ESE 12.7 mph 19.6 mph 0.10 in Rain Heavy Rain
6:29 PM 62.6 °F 62.6 °F 100% 29.67 in 3.0 mi ESE 11.5 mph 18.4 mph 0.18 in Rain Light Rain
6:52 PM 63.0 °F 62.1 °F 97% 29.67 in 5.0 mi ESE 8.1 mph 16.1 mph 0.18 in   Overcast
7:17 PM 64.4 °F 62.6 °F 94% 29.66 in 1.8 mi SE 8.1 mph 18.4 mph N/A   Overcast
7:52 PM 64.9 °F 64.0 °F 97% 29.65 in 1.8 mi Variable 6.9 mph 17.3 mph 0.01 in Rain Light Rain
7:58 PM 66.2 °F 64.4 °F 94% 29.65 in 3.0 mi SSE 8.1 mph - 0.00 in Rain Light Rain
8:52 PM 64.9 °F 64.0 °F 97% 29.65 in 1.2 mi South 8.1 mph - 0.00 in   Overcast
9:25 PM 66.2 °F 64.4 °F 94% 29.64 in 3.0 mi South 8.1 mph - 0.14 in Rain Light Rain
9:52 PM 66.0 °F 64.0 °F 93% 29.65 in 2.5 mi South 6.9 mph - 0.21 in Rain Rain
10:07 PM 66.2 °F 64.4 °F 94% 29.63 in 8.0 mi South 4.6 mph - 0.02 in Rain Light Rain
10:39 PM 66.2 °F 64.4 °F 94% 29.62 in 2.5 mi South 6.9 mph - 0.04 in Rain Light Rain
10:52 PM 66.0 °F 64.0 °F 93% 29.62 in 2.0 mi South 6.9 mph - 0.12 in Rain Rain
11:03 PM 66.2 °F 64.4 °F 94% 29.61 in 5.0 mi South 8.1 mph - 0.01 in Rain Light Rain
11:47 PM 69.8 °F 66.2 °F 88% 29.60 in 5.0 mi SSW 11.5 mph 18.4 mph 0.10 in Rain Light Rain
11:52 PM 69.1 °F 66.0 °F 90% 29.60 in 6.0 mi SSW 8.1 mph 18.4 mph 0.10 in Rain Light Rain